Terminal Aerodrome Forecast
Issued by NWS

Home | Current Version | Previous Version | Text Only | Print | Product List | Glossary On
Versions: 1 2 3 4 5 6 7 8 9 10 11 12 13 14 15
000
FTUS43 KEAX 201100
TAFMKC
TAF
KMKC 201120Z 2012/2112 22008KT P6SM SKC
     FM201900 20013KT P6SM SCT070=

USA.gov is the U.S. government's official web portal to all federal, state and local government web resources and services.